Skip Page Navigation
NASA JPL Caltech
NASA Logo - Jet Propulsion Laboratory + View the NASA Portal
+ Near-Earth Object (NEO) Program
Search JPL
JPL Home Earth Solar System Stars & Galaxies Technology
JPL Solar System Dynamics
BODIES ORBITS EPHEMERIDES TOOLS PHYSICAL DATA DISCOVERY FAQ SITE MAP
JPL Small-Body Database Browser
Search: [ help ]  
13 Egeria
Classification: Main-belt Asteroid          SPK-ID: 2000013
Ephemeris | Orbit Diagram | Orbital Elements | Physical Parameters | Discovery Circumstances ]

[ hide orbit diagram ]
Orbit Diagram
Note: Make sure you have Java enabled on your browser to see the applet. This applet is provided as a 3D orbit visualization tool. The applet was implemented using 2-body methods, and hence should not be used for determining accurate long-term trajectories (over several years or decades) or planetary encounter circumstances. For accurate long-term ephemerides, please instead use our Horizons system.
Orbit Viewer

Additional Notes: the orbits shown in the applet are color coded. The planets are white lines, and the asteroid/comet is a blue line. The bright white line indicates the portion of the orbit that is above the ecliptic plane, and the darker portion is below the ecliptic plane. Likewise for the asteroid/comet orbit, the light blue indicates the portion above the ecliptic plane, and the dark blue the portion below the ecliptic plane.

Orbit Viewer applet originally written and kindly provided by Osamu Ajiki (AstroArts), and further modified by Ron Baalke (JPL).


Orbital Elements at Epoch 2456400.5 (2013-Apr-18.0) TDB
Reference: JPL 58 (heliocentric ecliptic J2000)
 Element Value Uncertainty (1-sigma)   Units 
e .083884360371222 3.7608e-08  
a 2.57607670861896 3.9525e-09 AU
q 2.359984161649255 9.6486e-08 AU
i 16.54097245704781 4.9393e-06 deg
node 43.25663999535601 1.5509e-05 deg
peri 79.8521851682022 3.3364e-05 deg
M 24.02364126141478 2.8982e-05 deg
tp 2456299.720326588850
(2013-Jan-07.22032659)
0.00012155 JED
period 1510.207467436903
4.13
3.4756e-06
9.516e-09
d
yr
n .2383778439468224 5.4861e-10 deg/d
Q 2.792169255588664 4.284e-09 AU
  Orbit Determination Parameters
   # obs. used (total)      1733  
   data-arc span      59322 days (162.41 yr)  
   first obs. used      1850-11-21  
   last obs. used      2013-04-22  
   planetary ephem.      DE405  
   SB-pert. ephem.      SB405-CPV-2  
   condition code      0  
   fit RMS      .66058  
   data source      ORB  
   producer      Otto Matic  
   solution date      2013-Apr-29 12:31:19  

Additional Information
 Earth MOID = 1.4381 AU 
 T_jup = 3.364 
[ show covariance matrix ]

Ephemeris | Orbit Diagram | Orbital Elements | Physical Parameters | Discovery Circumstances ]

Physical Parameter Table
Parameter Symbol Value Units Sigma Reference Notes
absolute magnitude H 6.74 mag n/a IRAS-A-FPA-3-RDR-IMPS-V6.0 IRAS observations used: 3
diameter diameter 207.64 km 8.3 IRAS-A-FPA-3-RDR-IMPS-V6.0 IRAS observations used: 3
rotation period rot_per 7.045 h n/a Asteroid Lightcurve DataBase (Rev. 2013-May-01) Published Reference List:
[Chang, Y.C.; Chang, C.-s. (1963) Acta Astron. Sin. 11, 139-149.]
[Lagerkvist, C.I.; Magnusson, P.; Williams, I.P.; Buontempo, M.E.; et al. (1988) Astron. Astrophys. Suppl. Ser. 73, 395-405.]
[Piironen, J.; Lagerkvist, C.-I.; Erikson, A.; Oja, T.; et al. (1998) Astron. Astrophys. Suppl. Ser. 128, 525-540.]
[Riccioli, D.; Blanco, C.; Cigna, M. (2001) Planetary and Space Sci. 49, 657-671.]
[Pilcher, F. (2009) Minor Planet Bul. 36, 133-136.]
[Pilcher, F. (2009) Minor Planet Bul. 36, 133-136.]
[Hanus, J.; Durech, J.; Broz, M.; Warner, B.D.; et al. (2011) Astron. Astrophys. 530, A134.]
geometric albedo albedo 0.0825   0.007 IRAS-A-FPA-3-RDR-IMPS-V6.0 IRAS observations used: 3
B-V BV .745 mag .020 EAR-A-5-DDR-UBV-MEAN-VALUES-V1.1 #obs=8; phase (min.=9.59, mean=18.30, max.=24.72) deg.
U-B UB .452 mag .034 EAR-A-5-DDR-UBV-MEAN-VALUES-V1.1 #obs=8; phase (min.=9.59, mean=18.30, max.=24.72) deg.
Tholen spectral type spec_T G   n/a EAR-A-5-DDR-TAXONOMY-V4.0 used 4 color indices; used ground-based radiometric albedo
SMASSII spectral type spec_B Ch   n/a EAR-A-5-DDR-TAXONOMY-V4.0 based on a high-resolution spectrum by Xu et al. (1995) or Bus and Binzel (2002)

13 Egeria          Discovered 1850-Nov-02 by De Gasparis, A. at Naples
Reference: DISCOVERY.DBLast Updated: 2003-08-29
Ephemeris | Orbit Diagram | Orbital Elements | Physical Parameters | Discovery Circumstances ]
ABOUT SSD CREDITS/AWARDS PRIVACY/COPYRIGHT GLOSSARY LINKS
FirstGov 2013-May-22 10:17 UT
(server date/time)  
NASA Home Page
Site Manager:   Donald K. Yeomans
Webmaster  Alan B. Chamberlin